Weather History for Santa Fe, NM

Change the Weather History Date:

Saturday, March 23, 2013

  Actual Average Record
Temperature  
Mean Temperature 31 °F -  
Max Temperature 45 °F 0 °F 73 °F (1998)
Min Temperature 19 °F - 19 °F (2013)
Degree Days  
Heating Degree Days 34    
Moisture  
Dew Point -4 °F    
Average Humidity 22    
Maximum Humidity 43    
Minimum Humidity 7    
Precipitation  
Precipitation 0.00 in - - ()
Sea Level Pressure  
Sea Level Pressure 29.77 in    
Wind  
Wind Speed 16 mph (West)    
Max Wind Speed 32 mph    
Max Gust Speed 50 mph    
Visibility 10 miles    
Events      
Averages and records for this station are not official NWS values.
T = Trace of Precipitation, MM = Missing Value Source: NWS Daily Summary

Daily Weather History Graph

Daily Weather History Graph

Search for Another Location

Airport:

Trip Planner

Search our weather history database for the weather conditions in past years. The results will help you decide how hot, cold, wet, or windy it might be!

Date:

Astronomy

Mar. 23, 2013 Rise Set
Actual Time 7:03 AM MDT 7:18 PM MDT
Civil Twilight 6:37 AM MDT 7:44 PM MDT
Nautical Twilight 6:07 AM MDT 8:14 PM MDT
Astronomical Twilight 5:37 AM MDT 8:44 PM MDT
Moon 3:54 PM MDT (3/23) 4:34 AM MDT (3/23)
Length of Visible Light 13h 06m
Length of Day
12h 15m
Waxing Gibbous, 85% of the Moon is Illuminated
Mar 23
Waxing Gibbous
Mar 27
Full
Apr 2
Last Quarter
Apr 10
New
Apr 18
First Quarter

Hourly Weather History & Observations

Time (MDT) Temp. Windchill Dew Point Humidity Pressure Visibility Wind Dir Wind Speed Gust Speed Precip Events Conditions
1:53 AM 43.0 °F 36.8 °F 21.0 °F 42% 29.55 in 10.0 mi WSW 11.5 mph - N/A   Clear
2:53 AM 43.0 °F 35.4 °F 16.0 °F 34% 29.55 in 10.0 mi WSW 16.1 mph - N/A   Clear
3:53 AM 39.0 °F 32.3 °F 18.0 °F 43% 29.58 in 10.0 mi West 10.4 mph - N/A   Clear
4:53 AM 34.0 °F 26.0 °F 12.0 °F 40% 29.62 in 10.0 mi WSW 10.4 mph - N/A   Clear
5:53 AM 30.9 °F 23.5 °F 8.1 °F 38% 29.62 in 10.0 mi WSW 8.1 mph - N/A   Clear
6:53 AM 30.9 °F 22.8 °F 5.0 °F 33% 29.64 in 10.0 mi SW 9.2 mph - N/A   Clear
7:53 AM 33.1 °F 24.4 °F 3.9 °F 29% 29.68 in 10.0 mi WSW 11.5 mph - N/A   Clear
8:53 AM 36.0 °F 25.6 °F 5.0 °F 27% 29.68 in 10.0 mi SW 18.4 mph 23.0 mph N/A   Clear
9:53 AM 37.9 °F 30.0 °F 3.9 °F 24% 29.68 in 10.0 mi SW 12.7 mph 21.9 mph N/A   Clear
10:53 AM 42.1 °F 32.6 °F 1.0 °F 18% 29.65 in 10.0 mi SW 23.0 mph 31.1 mph N/A   Clear
11:53 AM 41.0 °F 30.9 °F -2.9 °F 16% 29.67 in 10.0 mi West 24.2 mph 36.8 mph N/A   Clear
12:53 PM 37.9 °F 25.9 °F -8.0 °F 14% 29.71 in 10.0 mi WNW 28.8 mph 38.0 mph N/A   Clear
1:28 PM 39.2 °F 27.6 °F -9.4 °F 12% 29.82 in 2.0 mi West 28.8 mph 49.5 mph N/A   Haze
1:35 PM 37.4 °F 24.6 °F -11.2 °F 12% 29.83 in 5.0 mi West 32.2 mph 44.9 mph N/A   Haze
1:53 PM 37.9 °F 25.9 °F -17.0 °F 9% 29.74 in 10.0 mi WNW 28.8 mph 44.9 mph N/A   Partly Cloudy
2:53 PM 37.0 °F 25.1 °F -23.1 °F 7% 29.73 in 10.0 mi WNW 26.5 mph 43.7 mph N/A   Clear
3:53 PM 37.0 °F 24.5 °F -17.0 °F 9% 29.78 in 10.0 mi WNW 29.9 mph 42.6 mph N/A   Clear
4:53 PM 37.0 °F 24.9 °F -15.0 °F 10% 29.82 in 10.0 mi WNW 27.6 mph 36.8 mph N/A   Clear
5:53 PM 36.0 °F 24.4 °F -13.0 °F 12% 29.86 in 10.0 mi NW 23.0 mph 29.9 mph N/A   Scattered Clouds
6:53 PM 33.1 °F 21.9 °F -18.0 °F 10% 29.92 in 10.0 mi WNW 18.4 mph 28.8 mph N/A   Clear
7:53 PM 28.9 °F 19.8 °F -15.0 °F 14% 29.98 in 10.0 mi NW 10.4 mph - N/A   Clear
8:53 PM 25.0 °F 17.1 °F -11.9 °F 19% 30.01 in 10.0 mi WNW 6.9 mph - N/A   Clear
9:53 PM 21.9 °F 13.4 °F -11.9 °F 22% 30.05 in 10.0 mi West 6.9 mph - N/A   Clear
10:53 PM 19.9 °F 12.1 °F -14.1 °F 22% 30.05 in 10.0 mi NW 5.8 mph - N/A   Clear
11:53 PM 19.9 °F 14.9 °F -13.0 °F 23% 30.05 in 10.0 mi NW 3.5 mph - N/A   Clear